DW9064 Weather Reports


Display with metric or nautical units.
time (UTC)temp
F
wind
direction
speed
MPH
gust
MPH
rain 1hr
in
rain 24hr
in
rain mn
in
humidity
%
barometer
mb
20260906064322 47 314 6.0 8.0 0.00 0.02 0.01 90 1018.2
20260906063422 47 314 4.0 8.0 0.00 0.02 0.01 89 1018.3
20260906062521 48 314 4.0 8.0 0.00 0.02 0.01 89 1018.2
20260906061621 48 314 5.0 8.0 0.00 0.02 0.01 88 1018.2
20260906060722 48 314 4.0 8.0 0.00 0.02 0.01 86 1018.1
20260906055822 49 328 6.0 8.0 0.00 0.02 0.01 85 1018.2
20260906054924 49 316 4.0 8.0 0.00 0.02 0.01 85 1018.1
20260906054033 50 314 4.0 9.0 0.00 0.02 0.01 84 1018.0
20260905204449 74 118 2.0 8.0 0.00 0.01 0.00 28 1016.7
20260905203549 73 128 4.0 8.0 0.00 0.01 0.00 29 1016.7
20260905202649 72 146 1.0 6.0 0.00 0.01 0.00 30 1016.8
20260905201749 72 137 3.0 7.0 0.00 0.01 0.00 27 1016.9
20260905195949 71 136 4.0 8.0 0.00 0.01 0.00 32 1017.1
20260905195049 71 143 3.0 8.0 0.00 0.01 0.00 31 1017.2
20260905194149 70 131 2.0 8.0 0.00 0.01 0.00 34 1017.4
20260905193249 71 97 2.0 8.0 0.00 0.01 0.00 40 1017.5
20260905192349 69 124 4.0 7.0 0.00 0.01 0.00 44 1017.4
20260905191449 68 114 2.0 9.0 0.00 0.01 0.00 47 1017.6
20260905190549 68 122 4.0 8.0 0.00 0.01 0.00 48 1017.7
20260905185649 67 113 3.0 9.0 0.00 0.01 0.00 49 1017.9
20260905183849 66 141 4.0 8.0 0.00 0.01 0.00 54 1018.0
20260905182949 66 83 2.0 7.0 0.00 0.01 0.00 55 1018.2
20260905182049 64 107 2.0 8.0 0.00 0.01 0.00 60 1018.2
20260905181149 63 124 2.0 8.0 0.00 0.01 0.00 62 1018.3
20260905180249 62 110 2.0 8.0 0.00 0.01 0.00 64 1018.6
20260905175349 63 77 3.0 7.0 0.00 0.01 0.00 65 1018.5
20260905174449 61 97 2.0 7.0 0.00 0.01 0.00 69 1018.7
20260905173549 61 92 1.0 6.0 0.00 0.01 0.00 72 1018.8
20260905172649 59 113 4.0 8.0 0.00 0.01 0.00 75 1019.0
20260905171749 58 114 4.0 8.0 0.00 0.01 0.00 76 1019.0
20260905165949 57 74 2.0 8.0 0.00 0.01 0.00 77 1019.3
20260905165049 57 68 3.0 8.0 0.00 0.01 0.00 80 1019.4
20260905164149 56 80 2.0 8.0 0.00 0.01 0.00 80 1019.6
20260905163249 55 76 1.0 6.0 0.00 0.01 0.00 84 1019.6
20260905162349 54 85 2.0 8.0 0.00 0.01 0.00 85 1019.6
20260905160549 53 82 2.0 7.0 0.00 0.01 0.00 87 1019.7
20260905155649 52 48 3.0 10.0 0.00 0.01 0.00 89 1019.7
20260905153849 51 66 4.0 11.0 0.00 0.01 0.00 93 1019.8
20260905152949 51 77 0.0 8.0 0.00 0.01 0.00 97 1019.9
20260905151148 48 101 0.0 4.0 0.00 0.01 0.00 99 1020.0
20260905150248 47 98 2.0 7.0 0.00 0.01 0.00 99 1020.0
20260905145349 47 81 2.0 6.0 0.00 0.01 0.00 99 1019.9
20260905144449 47 91 2.0 5.0 0.00 0.01 0.00 99 1019.8
20260905143548 47 94 2.0 5.0 0.00 0.01 0.00 99 1019.7
20260905142648 47 78 1.0 6.0 0.00 0.01 0.00 99 1019.8
20260905141748 47 82 0.0 7.0 0.00 0.01 0.00 99 1019.7
20260905140848 45 86 2.0 6.0 0.00 0.01 0.00 99 1019.6
20260905135949 45 11 0.0 3.0 0.00 0.01 0.00 99 1019.5
20260905135048 44 72 2.0 4.0 0.00 0.01 0.00 99 1019.5
20260905133248 43 38 0.0 3.0 0.00 0.01 0.00 99 1019.3
20260905132348 42 38 1.0 3.0 0.00 0.01 0.00 99 1019.2
20260905131448 42 357 2.0 4.0 0.00 0.01 0.00 99 1019.0
20260905130548 41 343 2.0 4.0 0.00 0.01 0.00 99 1019.0
20260905125648 41 342 2.0 4.0 0.00 0.01 0.00 99 1019.0
20260905124748 41 338 3.0 4.0 0.00 0.01 0.00 99 1018.9
20260905123848 41 330 3.0 4.0 0.00 0.01 0.00 99 1018.9
20260905121148 41 320 4.0 4.0 0.00 0.01 0.00 99 1018.8
20260905120248 41 317 3.0 4.0 0.00 0.01 0.00 99 1018.8
20260905115348 41 342 3.0 4.0 0.00 0.01 0.00 99 1018.7
20260905113548 42 350 2.0 4.0 0.00 0.01 0.00 99 1018.7
20260905112648 42 12 2.0 5.0 0.00 0.01 0.00 99 1018.6
20260905105949 43 11 1.0 5.0 0.00 0.01 0.00 99 1018.7
20260905105048 44 356 3.0 5.0 0.00 0.01 0.00 99 1018.6
20260905104148 44 358 2.0 4.0 0.00 0.01 0.00 99 1018.5
20260905103248 44 350 4.0 4.0 0.00 0.01 0.00 99 1018.5
20260905101448 43 341 4.0 6.0 0.00 0.01 0.00 99 1018.7
20260905100548 43 327 3.0 6.0 0.00 0.01 0.00 99 1018.7
20260905094748 43 314 5.0 7.0 0.00 0.01 0.00 99 1018.5
20260905092948 43 316 4.0 5.0 0.00 0.01 0.00 99 1018.6
20260905092049 43 321 4.0 5.0 0.00 0.01 0.00 99 1018.4
20260905091148 43 325 4.0 5.0 0.00 0.01 0.00 99 1018.4
20260905090249 43 318 3.0 5.0 0.00 0.01 0.00 99 1018.3
20260905084448 43 314 4.0 7.0 0.00 0.01 0.00 99 1018.2
20260905083548 43 314 4.0 6.0 0.00 0.01 0.00 99 1017.9
20260905082648 44 316 4.0 6.0 0.00 0.01 0.00 99 1017.9
20260905081748 44 314 4.0 6.0 0.00 0.01 0.00 99 1017.7
20260905080848 44 315 4.0 5.0 0.00 0.01 0.00 99 1017.7
20260905075947 44 318 4.0 6.0 0.00 0.01 0.00 99 1017.7
20260905074148 45 320 4.0 6.0 0.00 0.01 0.00 98 1017.6
20260905073247 45 324 4.0 5.0 0.00 0.01 0.00 98 1017.6
20260905072347 45 314 4.0 8.0 0.00 0.01 0.00 98 1017.7
20260905071447 45 317 4.0 8.0 0.00 0.01 0.00 98 1017.6
20260905070548 46 346 4.0 6.0 0.00 0.01 0.00 98 1017.6
20260905065647 46 344 4.0 6.0 0.00 0.01 0.01 98 1017.6
20260905064748 46 357 4.0 8.0 0.00 0.01 0.01 98 1017.6